UTMN 2 (RS27S)

Last updated on Sun Dec 14 2025 00:03:11 GMT+0000 (Coordinated Universal Time)

1 57203U 23091AP 25347.33028704 .00021129 00000+0 80376-3 0 9991 2 57203 97.5368 47.4232 0009553 24.6715 335.4979 15.26749642136136
UTC large
Height (km)
Speed (km/s)
/
Latitude / Longitude
Inclination (degrees)
Orbital Period (minutes)
Azimuth
Elevation
Range (km)
Doppler Factor

Next 0 passes for location: London (51.5072 / 0.1276)

Sorry there are no passes over London.